Location: Tehachapi Municipal Airport
(35.1300°N, 118.4400°W)
Time: 09:41:16
(UTC-07:00)

BREEZE M DEB (TANK) - Visible Passes

Search period start: 30 October 2014 00:00
Search period end: 08 November 2014 23:00
Orbit: 308 x 12183 km, 49.5° (Epoch: 28 October)

Date Brightness Start Highest point End Pass type
(mag) Time Alt. Az. Time Alt. Az. Time Alt. Az.
30 Oct 6.2 17:28:44 10° SSW 18:30:06 71° SE 18:42:16 10° ENE visible
30 Oct 6.1 22:27:52 10° WNW 22:38:11 26° NW 22:38:11 26° NW visible
31 Oct 5.8 21:53:57 10° W 22:09:44 33° NNW 22:09:44 33° NNW visible
01 Nov 5.5 21:19:10 10° W 21:40:18 39° NNW 21:41:15 38° NNW visible
02 Nov 5.3 19:43:30 10° WSW 20:10:15 45° NNW 20:12:44 39° N visible
03 Nov 5.3 19:07:02 10° WSW 19:40:06 52° NW 19:44:11 35° NNE visible
04 Nov 5.4 18:29:59 10° WSW 19:09:53 60° NW 19:15:36 29° NE visible
05 Nov 5.6 17:52:38 10° SW 18:39:33 68° NW 18:46:59 21° NE visible
06 Nov 5.9 17:15:21 10° SW 18:09:04 76° NW 18:18:21 15° NE visible
06 Nov 6.7 22:12:30 10° NW 22:13:34 12° NW 22:13:34 12° NW visible
07 Nov 6.1 16:38:26 10° SW 17:38:25 84° NW 17:49:29 10° NE visible
07 Nov 6.4 21:40:25 10° WNW 21:44:53 18° NW 21:44:53 18° NW visible
08 Nov 6.1 16:02:05 10° SW 17:07:35 88° SE 17:19:48 10° NE visible
08 Nov 6.1 21:07:36 10° WNW 21:16:10 24° NW 21:16:10 24° NW visible
